This demonstration page uses our WeatherBlox Daily Observations layout. Learn more.

Left ArrowRight Arrow

30.00354, -91.81873

Hourly Observations for August 9, 2022

Temp ( °F °C ) Dew Point ( °F °C ) Humidity (%) Winds ( mph kmh ) Pressure ( in mb ) Visibility ( mi km ) Precip ( " mm )
12:53 am 00:53 Clear 76 24.4 73 22.8 91 91 E 3 6 30.06 1018 10 16 0.00 0.00
1:53 am 01:53 Clear 75 23.9 73 22.8 94 94 Calm 30.04 1017 10 16 0.00 0.00
2:53 am 02:53 Clear 74 23.3 71 21.7 91 91 Calm 30.02 1017 10 16 0.00 0.00
3:53 am 03:53 Clear 73 22.8 71 21.7 94 94 SE 5 7 30.02 1017 9 14 0.00 0.00
4:53 am 04:53 Clear 75 23.9 72 22.2 90 90 ESE 3 6 30.04 1017 10 16 0.00 0.00
5:53 am 05:53 Clear 75 23.9 73 22.8 94 94 E 3 6 30.05 1018 10 16 0.00 0.00
6:53 am 06:53 Sunny 76 24.4 74 23.3 94 94 Calm 30.07 1018 10 16 0.00 0.00
7:53 am 07:53 Sunny 79 26.1 75 23.9 88 88 E 3 6 30.08 1019 10 16 0.00 0.00
8:53 am 08:53 Sunny 83 28.3 76 24.4 79 79 E 6 9 30.10 1019 10 16 0.00 0.00
9:53 am 09:53 Mostly Sunny 85 29.4 75 23.9 72 72 E 3 6 30.10 1019 10 16 0.00 0.00
10:30 am 10:30 Mostly Cloudy 86 30 74 23.3 67 67 Calm 30.11 1020 10 16 0.00 0.00
10:53 am 10:53 Cloudy 87 30.6 74 23.3 65 65 ESE 3 6 30.10 1019 10 16 0.00 0.00
11:33 am 11:33 Mostly Cloudy 89 31.7 72 22.2 57 57 VRB 5 7 30.10 1019 10 16 0.00 0.00
11:53 am 11:53 Mostly Sunny 91 32.8 73 22.8 56 56 VRB 6 9 30.09 1019 10 16 0.00 0.00
12:53 pm 12:53 Sunny 92 33.3 73 22.8 54 54 NNE 6 9 30.07 1018 10 16 0.00 0.00
1:53 pm 13:53 Mostly Cloudy 87 30.6 74 23.3 65 65 S 9 15 30.05 1018 10 16 0.00 0.00
2:53 pm 14:53 Sunny 91 32.8 73 22.8 56 56 VRB 3 6 30.03 1017 10 16 0.00 0.00
3:33 pm 15:33 Cloudy with Nearby Thunderstorms 88 31.1 74 23.3 63 63 Calm 30.02 1017 10 16 0.01 0.25
3:56 pm 15:56 Cloudy with Nearby Thunderstorms 82 27.8 74 23.3 77 77 S 18 30 30.02 1017 2 3 0.11 2.79
4:02 pm 16:02 Cloudy with Strong Thunderstorms 78 25.6 73 22.8 85 85 SSE 25 41 30.01 1016 1 1 0.24 6.10
4:14 pm 16:14 Cloudy with Thunderstorms 77 25 73 22.8 88 88 SSE 18 30 30.03 1017 2 3 0.27 6.86
4:23 pm 16:23 Cloudy with Thunderstorms 75 23.9 72 22.2 90 90 S 9 15 30.03 1017 6 10 0.28 7.11
4:53 pm 16:53 Cloudy with Nearby Thunderstorms 79 26.1 72 22.2 79 79 Calm 30.03 1017 10 16 0.28 7.11
5:01 pm 17:01 Cloudy with Thunderstorms 79 26.1 72 22.2 79 79 Calm 30.04 1017 10 16 0.01 0.13
5:16 pm 17:16 Cloudy with Nearby Thunderstorms 80 26.7 72 22.2 76 76 Calm 30.03 1017 10 16 0.01 0.25
5:31 pm 17:31 Mostly Cloudy with Light Rain 80 26.7 74 23.3 82 82 W 3 6 30.03 1017 10 16 0.01 0.25
5:53 pm 17:53 Mostly Sunny 82 27.8 73 22.8 74 74 Calm 30.03 1017 10 16 0.01 0.25
6:53 pm 18:53 Sunny 81 27.2 74 23.3 79 79 Calm 30.00 1016 10 16 0.00 0.00
7:53 pm 19:53 Sunny 80 26.7 74 23.3 82 82 Calm 30.04 1017 10 16 0.00 0.00
8:53 pm 20:53 Clear 79 26.1 74 23.3 85 85 E 3 6 30.05 1018 10 16 0.00 0.00
9:53 pm 21:53 Clear 78 25.6 74 23.3 87 87 ENE 3 6 30.06 1018 10 16 0.00 0.00
10:53 pm 22:53 Clear 77 25 74 23.3 90 90 SSE 3 6 30.05 1018 10 16 0.00 0.00
11:53 pm 23:53 Clear 77 25 74 23.3 90 90 SSE 5 7 30.03 1017 10 16 0.00 0.00

Powered by AerisWeather